Regional Weather Roundup
Issued by NWS

Home | Current Version | Previous Version | Graphics & Text | Print | Product List | Glossary On
Versions: 1 2 3 4 5 6 7 8 9 10 11 12 13 14 15 16 17 18 19 20 21 22 23 24 25 26 27 28 29 30 31 32 33 34 35 36 37 38 39 40 41 42 43 44 45 46 47 48 49 50
000
ASUS43 KBIS 261210
RWRND

NORTH DAKOTA REGIONAL WEATHER ROUNDUP
NATIONAL WEATHER SERVICE BISMARCK ND
700 AM CDT TUE SEP 26 2017

NOTE: "FAIR" INDICATES FEW OR NO CLOUDS BELOW 12,000 FEET WITH NO
SIGNIFICANT WEATHER AND/OR OBSTRUCTIONS TO VISIBILITY.


NDZ001>003-009>011-017-261300-
NORTHWEST NORTH DAKOTA

CITY           SKY/WX    TMP DP  RH WIND       PRES   REMARKS
WILLISTON      CLOUDY    47  46  97 CALM      30.10S
6HR MIN TEMP:  47; 6HR MAX TEMP:  48;

MINOT          CLOUDY    49  44  83 SW6       30.09F
MINOT AFB      CLOUDY    47  45  91 SW3       30.08F
$$

NDZ018>021-031>035-040>046-261300-
SOUTHWEST NORTH DAKOTA

CITY           SKY/WX    TMP DP  RH WIND       PRES   REMARKS
BISMARCK       CLOUDY    48  45  89 CALM      30.12R
6HR MIN TEMP:  46; 6HR MAX TEMP:  48;

DICKINSON      CLOUDY    44  44 100 CALM      30.06S
GARRISON         N/A     45  44  97 CALM      30.10S
6HR MIN TEMP:  45; 6HR MAX TEMP:  47; 6HR PCP:  0.01;

HETTINGER ARPT LGT RAIN  44  42  93 CALM      30.09S
$$

NDZ004>008-012>016-024-026-027-054-261300-
NORTHEAST NORTH DAKOTA

CITY           SKY/WX    TMP DP  RH WIND       PRES   REMARKS
GRAND FORKS    LGT RAIN  49  49 100 N9        30.06R
GRND FRKS AFB  LGT RAIN  48  48  99 N9        30.07R
DEVILS LAKE    CLOUDY    45  43  93 N7        30.10S
$$

NDZ022-023-025-028>030-036>039-047>053-261300-
SOUTHEAST NORTH DAKOTA

CITY           SKY/WX    TMP DP  RH WIND       PRES   REMARKS
FARGO          LGT RAIN  50  50 100 NW6       30.04R
6HR MIN TEMP:  50; 6HR MAX TEMP:  51; 6HR PCP:  0.22;

JAMESTOWN      CLOUDY    47  45  93 NW7       30.07S
$$





USA.gov is the U.S. government's official web portal to all federal, state and local government web resources and services.